STARLINK-35360

Last updated on Fri Dec 12 2025 00:02:05 GMT+0000 (Coordinated Universal Time)

1 66444U 25259Y 25345.58335648 -.02307398 00000+0 -56702-1 0 9992 2 66444 43.0011 54.0552 0001850 269.5033 28.9290 15.43281226 6097
UTC large
Height (km)
Speed (km/s)
/
Latitude / Longitude
Inclination (degrees)
Orbital Period (minutes)
Azimuth
Elevation
Range (km)
Doppler Factor

Next 0 passes for location: London (51.5072 / 0.1276)

Sorry there are no passes over London.